User: anonymous   Login
Location: Unspecified
(0.0000°N, 0.0000°E)
Time: 21:06:24
(UTC+01:00)
Language:

Cosmos 2251 - Orbit

View from above orbital plane
View from above orbital plane
View from above satellite
View from above satellite

Ground track
Ground track

The orbit data is extracted from the following two-line orbital elements,

1 22675U 93036A   16041.16924024  .00000036  00000-0  22838-4 0  9999
2 22675  74.0388  35.8468 0026304 274.5168  85.2978 14.32462394183432
Epoch (UTC): 10 February 2016 04:03:42
Eccentricity: 0.0026304
inclination: 74.0388°
perigee height: 764 km
apogee height: 802 km
right ascension of ascending node: 35.8468°
argument of perigee: 274.5168°
revolutions per day: 14.32462394
mean anomaly at epoch: 85.2978°
orbit number at epoch: 18343

The dashed part of the orbit path shows where the satellite is in the earth's shadow,  

DLR